Date String (YYYY-MM-DD hh:mm:ss) UTC,Instrument flags,Ambient pressure (hPa),Sample flow (lpm),Bypass flow (lpm),Sample temperature (°C),Ambient temperature (°C),ASC tube jacket temperature (°C),LED temperature (°C),Box temperature (°C),Sample RH (%),Span deviation,Mass concentration (μg/m³),Mass concentration (μg/m³),Mass concentration (μg/m³)
DateTimeUTC,F1_M11,P_M11,Q1_M11,Q2_M11,T1_M11,T2_M11,T3_M11,T4_M11,T5_M11,U1_M11,ZSPAN_M11,X0_M11,X2_M11,X1_M11
2021-11-18 08:00:00,,0834.7,4.99,0.00,22.4,22.3,00.0,31.4,24.1,09.2,0000.0,0014.89,0005.19,0003.81
2021-11-18 08:01:00,,0834.7,5.00,0.00,22.4,22.1,00.0,31.4,24.1,09.2,0000.0,0015.04,0005.19,0003.81
2021-11-18 08:02:00,,0834.7,4.99,0.00,22.3,21.9,00.0,31.4,24.0,09.2,0000.0,0015.07,0005.12,0003.80
2021-11-18 08:03:00,,0834.7,5.00,0.00,22.3,21.7,00.0,31.4,24.0,09.2,0000.0,0014.73,0005.03,0003.81
2021-11-18 08:04:00,,0834.7,4.99,0.00,22.3,21.6,00.0,31.3,23.9,09.3,0000.0,0014.54,0005.02,0003.82
2021-11-18 08:05:00,,0834.7,4.99,0.00,22.2,21.6,00.0,31.3,23.9,09.3,0000.0,0013.97,0005.05,0003.82
2021-11-18 08:06:00,,0834.7,5.01,0.00,22.2,21.5,00.0,31.3,23.8,09.3,0000.0,0014.12,0005.06,0003.83
2021-11-18 08:07:00,,0834.7,4.99,0.00,22.2,21.4,00.0,31.3,23.8,09.3,0000.0,0013.57,0005.03,0003.83
2021-11-18 08:08:00,,0834.7,5.02,0.00,22.1,21.4,00.0,31.3,23.8,09.2,0000.0,0013.27,0005.02,0003.82
2021-11-18 08:09:00,,0834.7,4.99,0.00,22.1,21.6,00.0,31.3,23.8,09.2,0000.0,0013.13,0005.04,0003.81
2021-11-18 08:10:00,,0834.7,5.00,0.00,22.2,22.3,00.0,31.3,24.0,09.1,0000.0,0012.29,0005.01,0003.79
2021-11-18 08:11:00,,0834.7,4.99,0.00,22.3,23.0,00.0,31.3,24.2,09.1,0000.0,0011.66,0004.99,0003.77
2021-11-18 08:12:00,,0834.7,5.01,0.00,22.4,22.9,00.0,31.3,24.3,09.0,0000.0,0011.26,0004.99,0003.76
2021-11-18 08:13:00,,0834.7,5.01,0.00,22.4,22.7,00.0,31.4,24.2,09.0,0000.0,0011.84,0005.02,0003.76
2021-11-18 08:14:00,,0834.7,5.00,0.00,22.4,22.4,00.0,31.4,24.1,09.0,0000.0,0012.59,0005.05,0003.75
2021-11-18 08:15:00,,0834.7,5.00,0.00,22.3,22.1,00.0,31.4,24.1,09.0,0000.0,0012.95,0005.04,0003.72
2021-11-18 08:16:00,,0834.7,4.99,0.00,22.3,21.9,00.0,31.4,24.0,09.1,0000.0,0013.29,0005.01,0003.70
2021-11-18 08:17:00,,0834.7,5.00,0.00,22.3,21.8,00.0,31.3,24.0,09.1,0000.0,0012.81,0004.96,0003.67
2021-11-18 08:18:00,,0834.7,5.02,0.00,22.3,21.7,00.0,31.3,23.9,09.1,0000.0,0013.18,0004.87,0003.64
2021-11-18 08:19:00,,0834.7,4.99,0.00,22.2,21.6,00.0,31.3,23.9,09.1,0000.0,0013.51,0004.83,0003.62
2021-11-18 08:20:00,,0834.7,5.00,0.00,22.2,21.5,00.0,31.3,23.8,09.1,0000.0,0013.70,0004.75,0003.60
2021-11-18 08:21:00,,0834.7,5.00,0.00,22.2,21.4,00.0,31.3,23.8,09.1,0000.0,0014.09,0004.71,0003.58
2021-11-18 08:22:00,,0834.7,4.99,0.00,22.1,21.4,00.0,31.3,23.8,09.2,0000.0,0014.73,0004.67,0003.56
2021-11-18 08:23:00,,0834.7,5.00,0.00,22.1,21.4,00.0,31.3,23.8,09.2,0000.0,0014.98,0004.62,0003.53
2021-11-18 08:24:00,,0834.7,5.01,0.00,22.1,22.0,00.0,31.3,23.9,09.2,0000.0,0014.29,0004.56,0003.49
2021-11-18 08:25:00,,0834.7,5.00,0.00,22.3,22.8,00.0,31.3,24.1,09.1,0000.0,0013.72,0004.49,0003.47
2021-11-18 08:26:00,,0834.7,5.00,0.00,22.4,23.1,00.0,31.3,24.3,09.0,0000.0,0013.40,0004.45,0003.46
2021-11-18 08:27:00,,0834.7,5.00,0.00,22.4,22.8,00.0,31.3,24.3,09.0,0000.0,0013.61,0004.40,0003.44
2021-11-18 08:28:00,,0834.7,5.00,0.00,22.4,22.5,00.0,31.3,24.2,09.0,0000.0,0013.27,0004.39,0003.42
2021-11-18 08:29:00,,0834.7,4.99,0.00,22.4,22.3,00.0,31.4,24.1,09.0,0000.0,0012.44,0004.37,0003.40
2021-11-18 08:30:00,,0834.7,5.01,0.00,22.3,22.1,00.0,31.3,24.1,09.0,0000.0,0012.26,0004.33,0003.40
2021-11-18 08:31:00,,0834.7,4.99,0.00,22.3,21.9,00.0,31.3,24.0,09.0,0000.0,0012.58,0004.33,0003.39
2021-11-18 08:32:00,,0834.7,5.01,0.00,22.3,21.8,00.0,31.3,24.0,09.0,0000.0,0012.42,0004.34,0003.39
2021-11-18 08:33:00,,0834.7,4.99,0.00,22.2,21.7,00.0,31.3,23.9,09.0,0000.0,0011.89,0004.34,0003.39
2021-11-18 08:34:00,,0834.7,5.01,0.00,22.2,21.6,00.0,31.3,23.8,09.0,0000.0,0011.79,0004.36,0003.39
2021-11-18 08:35:00,,0834.7,4.99,0.00,22.2,21.5,00.0,31.3,23.8,09.0,0000.0,0012.40,0004.40,0003.39
2021-11-18 08:36:00,,0834.7,4.99,0.00,22.1,21.4,00.0,31.3,23.8,09.0,0000.0,0012.51,0004.44,0003.40
2021-11-18 08:37:00,,0834.7,5.01,0.00,22.1,21.4,00.0,31.3,23.8,09.1,0000.0,0013.38,0004.47,0003.40
2021-11-18 08:38:00,,0834.7,4.99,0.00,22.1,21.4,00.0,31.2,23.7,09.1,0000.0,0014.31,0004.49,0003.41
2021-11-18 08:39:00,,0834.6,5.00,0.00,22.1,22.0,00.0,31.3,23.9,09.1,0000.0,0014.45,0004.51,0003.41
2021-11-18 08:40:00,,0834.7,5.01,0.00,22.3,22.8,00.0,31.3,24.1,09.0,0000.0,0014.53,0004.54,0003.42
2021-11-18 08:41:00,,0834.7,5.00,0.00,22.4,23.1,00.0,31.3,24.3,09.0,0000.0,0014.45,0004.54,0003.41
2021-11-18 08:42:00,,0834.7,4.99,0.00,22.4,22.8,00.0,31.3,24.3,09.0,0000.0,0014.37,0004.55,0003.41
2021-11-18 08:43:00,,0834.7,5.00,0.00,22.4,22.6,00.0,31.3,24.2,09.0,0000.0,0014.42,0004.56,0003.41
2021-11-18 08:44:00,,0834.7,5.00,0.00,22.4,22.3,00.0,31.3,24.1,09.0,0000.0,0014.47,0004.56,0003.42
2021-11-18 08:45:00,,0834.7,5.00,0.00,22.3,22.1,00.0,31.3,24.1,09.0,0000.0,0014.66,0004.52,0003.42
2021-11-18 08:46:00,,0834.7,5.01,0.00,22.3,22.0,00.0,31.3,24.0,09.0,0000.0,0014.39,0004.51,0003.42
2021-11-18 08:47:00,,0834.7,4.99,0.00,22.3,21.8,00.0,31.3,24.0,09.0,0000.0,0014.37,0004.47,0003.42
2021-11-18 08:48:00,,0834.7,5.01,0.00,22.2,21.7,00.0,31.3,23.9,09.0,0000.0,0014.32,0004.47,0003.41
2021-11-18 08:49:00,,0834.7,5.00,0.00,22.2,21.6,00.0,31.3,23.9,09.0,0000.0,0013.19,0004.43,0003.38
2021-11-18 08:50:00,,0834.7,5.00,0.00,22.2,21.5,00.0,31.3,23.8,09.0,0000.0,0012.87,0004.34,0003.37
2021-11-18 08:51:00,,0834.7,5.01,0.00,22.1,21.4,00.0,31.3,23.8,09.0,0000.0,0013.46,0004.32,0003.35
2021-11-18 08:52:00,,0834.7,4.99,0.00,22.1,21.4,00.0,31.3,23.8,09.0,0000.0,0014.06,0004.36,0003.35
2021-11-18 08:53:00,,0834.7,5.01,0.00,22.1,21.8,00.0,31.3,23.8,09.0,0000.0,0013.74,0004.34,0003.33
2021-11-18 08:54:00,,0834.7,5.01,0.00,22.2,22.5,00.0,31.3,24.0,09.0,0000.0,0013.68,0004.25,0003.31
2021-11-18 08:55:00,,0834.7,4.99,0.00,22.3,23.1,00.0,31.3,24.2,08.9,0000.0,0013.17,0004.21,0003.30
2021-11-18 08:56:00,,0834.7,4.99,0.00,22.4,22.9,00.0,31.3,24.3,08.9,0000.0,0012.96,0004.25,0003.30
2021-11-18 08:57:00,,0834.7,5.01,0.00,22.4,22.6,00.0,31.4,24.2,08.9,0000.0,0012.61,0004.26,0003.29
2021-11-18 08:58:00,,0834.7,5.01,0.00,22.4,22.4,00.0,31.4,24.1,08.9,0000.0,0012.32,0004.27,0003.28
2021-11-18 08:59:00,,0834.7,4.99,0.00,22.3,22.2,00.0,31.4,24.1,08.9,0000.0,0012.30,0004.24,0003.27
